Regional Weather Roundup
Issued by NWS Little Rock, AR

Home | Current Version | Previous Version | Graphics & Text | Print | Product List | Glossary On
Versions: 1 2 3 4 5 6 7 8 9 10 11 12 13 14 15 16 17 18 19 20 21 22 23 24 25 26 27
000
ASUS44 KLZK 300005
RWRLZK

WEATHER ROUNDUP FOR ARKANSAS
NATIONAL WEATHER SERVICE LITTLE ROCK AR
700 PM CDT FRI JUL 29 2016

NOTE: "FAIR" INDICATES FEW OR NO CLOUDS BELOW 12,000 FEET WITH NO
SIGNIFICANT WEATHER AND/OR OBSTRUCTIONS TO VISIBILITY.

ARZ001-003-010-029-300100-
NORTHWEST ARKANSAS

CITY           SKY/WX    TMP DP  RH WIND       PRES   REMARKS
FAYETTEVILLE   PTSUNNY   82  75  79 CALM      29.95F HX  89
6HR MIN TEMP:  76; 6HR MAX TEMP:  87;

FORT SMITH     CLOUDY    87  67  51 W3        29.92R HX  90
6HR MIN TEMP:  73; 6HR MAX TEMP:  92; 6HR PCP:  0.02;

HARRISON       MOSUNNY   77  72  84 SE3       29.97F
6HR MIN TEMP:  69; 6HR MAX TEMP:  83; 6HR PCP:  1.42;

BENTONVILLE    MOSUNNY   84  66  54 N6        29.97F HX  86
6HR MIN TEMP:  79; 6HR MAX TEMP:  84;

ROGERS         PTSUNNY   83  71  67 CALM      29.97F HX  87
6HR MIN TEMP:  79; 6HR MAX TEMP:  85;

SILOAM SPGS    SUNNY     84  64  51 N6        29.97F HX  86
6HR MIN TEMP:  77; 6HR MAX TEMP:  84;

HIGHFILL       MOSUNNY   86  73  65 NE6       29.95F HX  93
6HR MIN TEMP:  79; 6HR MAX TEMP:  88;

SPRINGDALE     MOSUNNY   84  72  65 NE6       29.97F HX  89
$$

ARZ004-005-016-300100-
NORTH CENTRAL ARKANSAS

CITY           SKY/WX    TMP DP  RH WIND       PRES   REMARKS
BATESVILLE     CLOUDY    73  70  88 CALM      29.94S
6HR MIN TEMP:  73; 6HR MAX TEMP:  88; 6HR PCP:  1.08;

FLIPPIN        PTSUNNY   75  70  83 CALM      29.91F
6HR MIN TEMP:  72; 6HR MAX TEMP:  90; 6HR PCP:  0.49;

MTN HOME       PTSUNNY   74  71  91 CALM      29.94F
6HR MIN TEMP:  72; 6HR MAX TEMP:  89; 6HR PCP:  0.74;

$$

ARZ040-041-300100-
WEST CENTRAL ARKANSAS

CITY           SKY/WX    TMP DP  RH WIND       PRES   REMARKS
MENA             N/A    N/A N/A N/A MISG        N/A
MOUNT IDA      SUNNY     83  75  77 CALM      29.92S HX  90
6HR MIN TEMP:  82; 6HR MAX TEMP:  92;

$$

ARZ009-017-025-026-028-300100-
NORTHEAST ARKANSAS

CITY           SKY/WX    TMP DP  RH WIND       PRES   REMARKS
CORNING          N/A     72  72 100 CALM      29.91F
JONESBORO      CLOUDY    76  70  82 NW3       29.92F
6HR MIN TEMP:  76; 6HR MAX TEMP:  83; 6HR PCP: TRACE;

NEWPORT        CLOUDY    75  75 100 CALM      29.94F
6HR MIN TEMP:  75; 6HR MAX TEMP:  88; 6HR PCP:  0.03;

WALNUT RIDGE   CLOUDY    73  70  88 SE3       29.92S
6HR MIN TEMP:  73; 6HR MAX TEMP:  88; 6HR PCP:  0.04;

BLYTHEVILLE    LGT RAIN  74  71  91 SW6       29.92F
6HR MIN TEMP:  74; 6HR MAX TEMP:  83; 6HR PCP: TRACE;

$$

ARZ022-023-033-042-044-300100-
CENTRAL ARKANSAS

CITY           SKY/WX    TMP DP  RH WIND       PRES   REMARKS
LITTLE ROCK    CLOUDY    79  71  76 E5        29.93F
6HR MIN TEMP:  76; 6HR MAX TEMP:  93; 6HR PCP:  0.12;

N LITTLE ROCK    N/A     76  72  87 SE6       29.91F
6HR MIN TEMP:  73; 6HR MAX TEMP:  90;

JACKSONVILLE   CLOUDY    77  74  90 VRB3      29.92F
6HR MIN TEMP:  73; 6HR MAX TEMP:  96; 6HR PCP:  0.28;

SEARCY         CLOUDY    74  72  93 CALM      30.08R
6HR MIN TEMP:  72; 6HR MAX TEMP:  93; 6HR PCP:  2.63;

HOT SPRINGS    CLOUDY    87  72  60 E8        29.93S HX  93
6HR MIN TEMP:  75; 6HR MAX TEMP:  93; 6HR PCP:  0.10;

RUSSELLVILLE   PTSUNNY   82  71  69 SE6       29.93F HX  86
6HR MIN TEMP:  74; 6HR MAX TEMP:  88; 6HR PCP:  0.06;

$$

ARZ036-300100-
EAST ARKANSAS

CITY           SKY/WX    TMP DP  RH WIND       PRES   REMARKS
WEST MEMPHIS   LGT RAIN  73  71  93 S9        29.96S
6HR MIN TEMP:  71; 6HR MAX TEMP:  88;

$$

ARZ050-053-066-070-073-300100-
SOUTHWEST ARKANSAS

CITY           SKY/WX    TMP DP  RH WIND       PRES   REMARKS
ARKADELPHIA    CLOUDY    80  72  76 VRB7      29.92S THUNDER
6HR MIN TEMP:  79; 6HR MAX TEMP:  94;

CAMDEN         SUNNY     90  75  62 SW3       29.91F HX 100
TEXARKANA      SUNNY     90  74  59 S8        29.90F HX  99
6HR MIN TEMP:  87; 6HR MAX TEMP:  94; 6HR PCP: TRACE;

EL DORADO      SUNNY     89  75  63 S5        29.93F HX  99
6HR MIN TEMP:  87; 6HR MAX TEMP:  92;

DE QUEEN       SUNNY     91  76  61 S8        29.87F HX 103
6HR MIN TEMP:  83; 6HR MAX TEMP:  92;

$$

ARZ056-057-069-300100-
SOUTHEAST ARKANSAS

CITY           SKY/WX    TMP DP  RH WIND       PRES   REMARKS
PINE BLUFF     CLOUDY    73  70  90 E3        29.95S
6HR MIN TEMP:  73; 6HR MAX TEMP:  91; 6HR PCP:  0.12;

STUTTGART      CLOUDY    75  70  83 SE3       29.94S THUNDER
6HR MIN TEMP:  73; 6HR MAX TEMP:  93; 6HR PCP:  0.05;

MONTICELLO     MOSUNNY   91  76  61 S6        29.93F HX 103
6HR MIN TEMP:  88; 6HR MAX TEMP:  92;


$$






USA.gov is the U.S. government's official web portal to all federal, state and local government web resources and services.